Вернуться в каталог

STARLINK-4385

АктивенСвязьSSO
NORAD 53198·PAYLOAD·🇺🇸 United States

Запущен Jul 22, 2022 с Vandenberg Space Force Base

Loading…

Ближайшие Пролёты (ближайшие 24 часа)

TLE

СвежийSource: CelesTrak SupGP

Эпоха: Sep 15, 2026, 02:08 UTC

1 53198C 22084K   26258.08937500  .00047663  00000+0  14798-2 0  2581
2 53198  97.2834 312.9287 0001286  82.4494 326.5804 15.33411057    10

Отслеживайте STARLINK-4385 в реальном времени с AllMySat

Download on the App Store